Other Public Products
Issued by NWS Charleston, SC

Current Version | Previous Version | Graphics & Text | Print | Product List | Glossary On
Versions: 1 2 3 4 5 6 7 8 9 10 11 12 13 14 15 16 17 18 19 20 21 22 23 24 25 26 27 28 29 30 31 32 33 34 35 36 37 38 39 40 41 42 43 44 45 46 47 48 49 50
000
FPUS82 KCHS 202127
OPUCHS

TEST...KCHS/KSAV Gateway Observations...TEST
National Weather Service Charleston SC
500 PM EDT THU JUL 20 2017

NOTE: "fair" indicates few or no clouds below 12,000 feet with no
significant weather and/or obstructions to visibility.

SCZ050-WAZ558-NCZ071-TXZ119-213-PAZ071-DCZ001-FLZ074-172-MI076-
NYZ176-178-MAZ016-IL014-TNZ027-NJZ106-GAZ044-MD014-202200-

...Gateway Observations for Charleston International...

CITY           SKY/WX    TMP DP  RH WIND       PRES   REMARKS
Chas Airport   MOSUNNY   86  74  67 S10       30.00F HX  94
Seattle        FAIR      71  52  50 S10       30.15F
Charlotte      PTSUNNY   94  67  41 W5        30.02F HX  97
Dallas DFW     MOSUNNY   99  65  32 VRB5      30.00F HX 102
Dallas Love    MOSUNNY   97  66  36 S6        30.01F HX 100
Philladelphia  PTSUNNY   94  69  44 SW15      29.90F HX  99
Wash National  CLOUDY    97  68  38 W10       29.92F HX 102
Baltimore      CLOUDY    96  68  39 W10       29.91F HX 101
Miami          CLOUDY    89  75  63 VRB3      30.05S THUNDER HX  99
Detroit        CLOUDY    86  70  58 W8        29.97F HX  90
Newark         CLOUDY    95  63  34 W17       29.87F HX  96
Laguardia      CLOUDY    94  72  48 SW10      29.85F HX 102
J F K          PTSUNNY   87  77  72 S17       29.88F HX  99
Boston Logan   CLOUDY    91  66  43 W12G17    29.83F HX  93
Ft. Lauderdale CLOUDY    82  77  84 W6        30.04F HX  90
Chicago O`Hare CLOUDY    86  74  67 W8        29.95S HX  94
Chicago Midway CLOUDY    87  74  64 NW12      29.95R HX  95
Houston Bush   MOSUNNY   95  72  47 VRB6      30.03F HX 103
Houston Hobby  PTSUNNY   93  75  55 SE9       30.03F HX 104
Nashville      PTSUNNY   96  70  42 VRB5      30.07F HX 102
Atlanta        MOSUNNY   93  70  46 N10       30.04F HX  99

$$

GAZ044-118-TXZ119-213-NCZ071-DCZ001-MDZ014-506-PAZ021-071-NJZ106-
NYZ176-178-MAZ106-OHZ011-021-055-MIZ076-KYZ091-ILZ014-INZ047-
MNZ060-ONZ431-202200-

...Gateway Observations for Savannah International...

CITY           SKY/WX    TMP DP  RH WIND       PRES   REMARKS
Savannah Arpt  CLOUDY    79  71  76 W8        30.04S
Atlanta        MOSUNNY   93  70  46 N10       30.04F HX  99
Charlotte      PTSUNNY   94  67  41 W5        30.02F HX  97
Dallas DFW     MOSUNNY   99  65  32 VRB5      30.00F HX 102
Houston Bush   MOSUNNY   95  72  47 VRB6      30.03F HX 103
Wash National  CLOUDY    97  68  38 W10       29.92F HX 102
Wash Dulles    CLOUDY    92  70  48 SW8       29.93F HX  97
Baltimore      CLOUDY    96  68  39 W10       29.91F HX 101
Philadelphia   PTSUNNY   94  69  44 SW15      29.90F HX  99
Newark         CLOUDY    95  63  34 W17       29.87F HX  96
Laguardia      CLOUDY    94  72  48 SW10      29.85F HX 102
J F K          PTSUNNY   87  77  72 S17       29.88F HX  99
Boston         CLOUDY    91  66  43 W12G17    29.83F HX  93
Pittsburg      PTSUNNY   87  71  58 SW8       29.98F THUNDER HX  93
Akron          PTSUNNY   90  67  46 W14       29.99F HX  93
Cleveland      CLOUDY    87  70  56 W10       30.00F HX  92
Cincinnati     CLOUDY    89  75  63 SW12      30.03R HX  99
Columbus       CLOUDY    82  75  80 SW13      30.01S
Detroit        CLOUDY    86  70  58 W8        29.97F HX  90
Chicago O`Hare CLOUDY    86  74  67 W8        29.95S HX  94
Minneapolis    CLOUDY    88  63  43 SW6       30.02S
Indianapolis   CLOUDY    89  76  65 SW14G22   29.99F HX 100
Toronto Canada PTSUNNY   73  59  60 S5        29.92F

$$




USA.gov is the U.S. government's official web portal to all federal, state and local government web resources and services.